SENTINEL-2B

Last updated on Mon Jun 22 2026 00:02:52 GMT+0000 (Coordinated Universal Time)

1 42063U 17013A 26172.47322568 .00000345 00000+0 14824-3 0 9995 2 42063 98.5686 247.1877 0001181 88.2642 271.8676 14.30818862485258
UTC large
Height (km)
Speed (km/s)
/
Latitude / Longitude
Inclination (degrees)
Orbital Period (minutes)
Azimuth
Elevation
Range (km)
Doppler Factor

Next 0 passes for location: London (51.5072 / 0.1276)

No passes found over London.
SENTINEL-2B